This is the latest recevied weather packets stored in our database for station/object WE0DX-1. If no packets are shown the sender has not sent any weather packets the latest 10 day(s).
| Time | Temp. | Humidity | Pressure | Rain* | Wind** | Luminosity | Snow |
|---|---|---|---|---|---|---|---|
| 1778027645 | 11.11° C | 84% | 1011 hPa | 0 mm | - | 10 W/m² | - |
| 1778027342 | 11.11° C | 83% | 1011.1 hPa | 0 mm | - | 11 W/m² | - |
| 1778027038 | 11.11° C | 83% | 1011.1 hPa | 0 mm | - | 12 W/m² | - |
| 1778026733 | 11.11° C | 84% | 1011 hPa | 0 mm | - | 23 W/m² | - |
| 1778026430 | 11.11° C | 83% | 1010.9 hPa | 0 mm | - | 29 W/m² | - |
| 1778026127 | 11.11° C | 83% | 1010.9 hPa | 0 mm | - | 27 W/m² | - |
| 1778025825 | 11.11° C | 83% | 1010.9 hPa | 0 mm | - | 29 W/m² | - |
| 1778025522 | 11.11° C | 82% | 1010.6 hPa | 0 mm | - | 39 W/m² | - |
| 1778025220 | 11.11° C | 81% | 1010.9 hPa | 0 mm | - | 35 W/m² | - |
| 1778024916 | 11.11° C | 81% | 1011 hPa | 0 mm | - | 35 W/m² | - |
| 1778024614 | 11.67° C | 82% | 1011 hPa | 0 mm | - | 39 W/m² | - |
| 1778024311 | 11.11° C | 81% | 1011 hPa | 0 mm | - | 57 W/m² | - |
| 1778024009 | 11.11° C | 81% | 1010.9 hPa | 0 mm | - | 56 W/m² | - |
| 1778023706 | 11.11° C | 82% | 1011 hPa | 0 mm | - | 47 W/m² | - |
| 1778023403 | 11.11° C | 82% | 1011.2 hPa | 0 mm | - | 46 W/m² | - |
| 1778023100 | 11.11° C | 81% | 1010.9 hPa | 0 mm | - | 35 W/m² | - |
| 1778022798 | 11.11° C | 81% | 1011.2 hPa | 0 mm | - | 26 W/m² | - |
| 1778022496 | 11.11° C | 79% | 1011.2 hPa | 0 mm | - | 27 W/m² | - |
| 1778022193 | 11.11° C | 80% | 1011.2 hPa | 0 mm | - | 36 W/m² | - |
| 1778021890 | 11.67° C | 79% | 1010.8 hPa | 0 mm | - | 39 W/m² | - |
| 1778021587 | 11.67° C | 80% | 1010.8 hPa | 0 mm | - | 44 W/m² | - |
| 1778021282 | 11.67° C | 79% | 1010.8 hPa | 0 mm | - | 48 W/m² | - |
| 1778020980 | 11.67° C | 78% | 1010.6 hPa | 0 mm | - | 50 W/m² | - |
| 1778020677 | 11.67° C | 78% | 1010.9 hPa | 0 mm | - | 59 W/m² | - |
| 1778020374 | 11.11° C | 77% | 1011 hPa | 0 mm | - | 57 W/m² | - |
* Rain latest hour (hover to see other rain measurements)
** Current wind speed in m/s (hover to see current wind gust speed)